Aérodrome :
LOGIN :

S'inscrire | Disclaimer

   EN    FR    IT 

 










Légende :    VFR   VFR Marginal   IFR   IFR Intensif   IFR Très Intensif
Visi : 
Plafond : 
>= 8 km
>= 3000ft
5 à 8 km
1000 à 3000 ft
1500m à 5 km
500 à 1000 ft
800 à 1500m
200 à 500 ft
< 800m
< 200 ft
Symboles :   Orages  Brouillard  Fortes neiges  Fortes précipitations  Vent > 20 kt
SIGMETs :   Divers  Orages  Givrage  Turbulence  Onde Orograph.  Cendres Volcan.






- Altitude de l'aérodrome : 209 ft
- Code IATA : CLY


LFKC - Calvi

DERNIER METAR :
  • 180130Z AUTO 19002KT CAVOK 13/11 Q1018

METARs EXPIRÉS :
  • 180100Z AUTO 20005KT CAVOK 13/11 Q1019
  • 180030Z AUTO 20003KT CAVOK 13/11 Q1019
  • 180000Z AUTO 20003KT CAVOK 13/11 Q1019
  • 172330Z AUTO 16003KT 140V200 CAVOK 13/11 Q1019
  • 172300Z AUTO VRB03KT CAVOK 13/11 Q1019

TAF TAF LFKC
Valide du 17 à 15h jusqu'au 18 à 15h UTC


171400Z 1715/1815 35006KT 9999 FEW040 TX23/1812Z TN12/1804Z
BECMG 1810/1812 24010KT
ATIS : +33 4 95 65 82 49



MET'MAP, la Météo Aéronautique d'un coup d'oeil ! - Copyright ORBIFLY Décembre 2007 - Disclaimer

ORBIFLY MET'MAP TEAM :

Programmation & Développement : Alexandra Zaïnal
Conception & Développement : Baudouin d'Aumeries
Co-Programmation & Développement : Marc-Olivier Méhu
Soutien technique & logistique : Manuel Goepfert

Contact : metmap@orbifly.com




SOURCES & CREDITS :

   NOAA